FW8938 Weather Reports


time (UTC)temp
C
wind
direction
speed
KPH
gust
KPH
rain 1hr
cm
rain 24hr
cm
rain mn
cm
humidity
%
barometer
mb
20260505071549 18 61 14.5 25.7 0.00 0.00 0.00 72 1006.2
20260505070054 18 51 19.3 30.6 0.00 0.00 0.00 72 1006.2
20260505064556 18 18 16.1 29.0 0.00 0.00 0.00 72 1006.2
20260505063100 18 316 14.5 30.6 0.00 0.00 0.00 72 1006.2
20260505061617 18 38 17.7 25.7 0.00 0.00 0.00 72 1006.1
20260505060056 18 15 14.5 29.0 0.00 0.00 0.00 72 1006.1
20260505054616 18 42 11.3 27.4 0.00 0.00 0.00 71 1006.5
20260505053056 18 314 19.3 37.0 0.00 0.00 0.00 70 1006.6
20260505051627 18 35 20.9 33.8 0.00 0.00 0.00 71 1006.3
20260505041553 18 9 16.1 29.0 0.00 0.00 0.00 70 1006.8
20260505040100 18 22 12.9 25.7 0.00 0.00 0.00 70 1007.0
20260505034550 19 28 17.7 30.6 0.00 0.00 0.00 69 1007.2
20260505033053 19 43 12.9 27.4 0.00 0.00 0.00 68 1007.5
20260505031552 19 17 16.1 30.6 0.00 0.00 0.00 67 1007.2
20260505030052 20 27 12.9 22.5 0.00 0.00 0.00 65 1007.4
20260505024609 20 47 11.3 25.7 0.00 0.00 0.00 64 1007.3
20260505023055 20 342 12.9 20.9 0.00 0.00 0.00 63 1007.0
20260505021613 20 46 11.3 24.1 0.00 0.00 0.00 62 1006.8
20260505020100 21 36 16.1 27.4 0.00 0.00 0.00 60 1006.6
20260505014555 21 27 8.0 22.5 0.00 0.00 0.00 60 1006.4
20260505013057 21 63 14.5 24.1 0.00 0.00 0.00 58 1006.2
20260505011556 22 32 14.5 29.0 0.00 0.00 0.00 57 1006.0
20260505010053 22 42 14.5 24.1 0.00 0.00 0.00 56 1005.9
20260505004559 22 42 8.0 16.1 0.00 0.00 0.00 55 1005.8
20260505003054 23 49 9.7 24.1 0.00 0.00 0.00 53 1005.7
20260505001555 23 36 14.5 25.7 0.00 0.00 0.00 51 1005.7
20260505000057 23 26 16.1 32.2 0.00 0.00 0.00 49 1005.8
20260504234552 24 349 17.7 35.4 0.00 0.00 0.00 48 1005.8
20260504233100 25 329 22.5 35.4 0.00 0.00 0.00 49 1005.9
20260504231554 25 24 22.5 32.2 0.00 0.00 0.00 49 1005.9
20260504230101 25 57 20.9 37.0 0.00 0.00 0.00 49 1005.9
20260504224553 25 36 14.5 30.6 0.00 0.00 0.00 49 1005.9
20260504223055 25 24 27.4 40.2 0.00 0.00 0.00 49 1006.0
20260504221606 25 55 19.3 33.8 0.00 0.00 0.00 47 1006.0
20260504220122 25 40 19.3 41.8 0.00 0.00 0.00 49 1005.9
20260504214555 25 34 22.5 33.8 0.00 0.00 0.00 49 1006.1
20260504213122 26 40 16.1 41.8 0.00 0.00 0.00 49 1006.3
20260504211555 25 57 24.1 40.2 0.00 0.00 0.00 48 1006.4
20260504210059 25 54 19.3 40.2 0.00 0.00 0.00 49 1006.5
20260504204606 25 51 19.3 37.0 0.00 0.00 0.00 48 1006.7
20260504203052 25 38 25.7 38.6 0.00 0.00 0.00 48 1006.8
20260504201554 25 33 27.4 41.8 0.00 0.00 0.00 47 1007.0
20260504200109 25 31 29.0 41.8 0.00 0.00 0.00 49 1007.1
20260504194559 25 34 27.4 48.3 0.00 0.00 0.00 48 1007.3
20260504193054 25 41 25.7 53.1 0.00 0.00 0.00 47 1007.4
20260504191559 25 345 29.0 45.1 0.00 0.00 0.00 47 1007.5
20260504190057 25 48 24.1 45.1 0.00 0.00 0.00 50 1007.6
20260504184558 25 33 19.3 43.5 0.00 0.00 0.00 48 1007.7
20260504183059 24 74 27.4 41.8 0.00 0.00 0.00 49 1007.8
20260504181556 24 51 24.1 45.1 0.00 0.00 0.00 49 1007.7
20260504180054 23 46 24.1 48.3 0.00 0.00 0.00 51 1007.8
20260504174557 24 38 20.9 43.5 0.00 0.00 0.00 51 1007.9
20260504173100 23 25 22.5 56.3 0.00 0.00 0.00 51 1008.0
20260504171556 23 51 27.4 41.8 0.00 0.00 0.00 52 1007.9
20260504081554 16 51 12.9 24.1 0.00 0.00 0.00 64 1010.5